#timestamp,LO_Frequency,Hit,StdDev 
1584864015.5,286046992.2,P
1584864035.3,286046990.2,P
1584864055.2,286046989.5,P
1584864075.9,286046991.5,Y
1584864095.7,286046993.8,P
1584864115.6,286046991.4,P
1584864135.4,286047001.9,N
1584864155.2,286046998.7,N
1584864175.1,286046991.8,N
1584864176.0,286046991.8,N
1584864195.8,286046989.1,N
1584864215.7,286046987.4,Y
1584864235.5,286046996.9,P
1584864255.3,286046997.0,N
1584864275.2,286046997.1,N
1584864295.0,286046995.6,Y
1584864295.9,286046995.6,P
1584864315.8,286046997.3,P
1584864335.6,286046996.2,P
1584864355.4,286046998.2,N
1584864375.3,286047009.6,Y
1584864395.1,286047015.8,P
1584864415.8,286047008.3,N
1584864435.7,286047005.7,N
1584864455.5,286047000.1,N
1584864475.4,286046994.2,N
1584864495.2,286046989.4,N
1584864515.0,286046985.5,N
1584864515.9,286046985.5,N
1584864535.8,286046985.7,N
1584864555.6,286046980.8,N
1584864575.5,286046983.9,N
1584864595.3,286046982.4,N
1584864615.1,286046984.5,N
1584864635.9,286046982.5,N
1584864655.7,286046981.9,N
1584864675.6,286046972.9,N
1584864695.4,286046981.8,N
1584864715.2,286046972.0,N
1584864735.1,286046969.1,N
1584864736.0,286046969.1,N
1584864755.8,286046968.0,N
1584864775.6,286046965.4,N
1584864795.5,286046963.6,N
1584864815.3,286046965.4,N
1584864835.2,286046963.6,N
1584864855.9,286046961.8,N
1584864875.7,286046962.7,N
1584864895.6,286046965.7,N
1584864915.4,286046962.1,N
1584864935.2,286046958.1,N
1584864955.1,286046959.3,N
1584864956.0,286046959.3,N
1584864975.9,286046955.9,Y
1584864995.7,286046977.2,P
1584865015.5,286046976.7,P
1584865035.4,286046980.2,P
1584865055.2,286046974.8,Y
1584865075.0,286046994.7,P
1584865075.9,286046994.7,N
1584865095.8,286046992.9,N
1584865115.6,286046992.3,N
1584865135.5,286046990.1,N
1584865155.3,286046987.3,N
1584865175.2,286046986.1,N
1584865195.9,286046982.1,Y
1584865215.7,286046992.2,P
1584865235.6,286046993.1,P
1584865255.4,286046993.2,P
1584865275.2,286046990.1,Y
1584865295.1,286046998.3,P
1584865296.0,286046998.3,N
1584865315.8,286046998.9,N
1584865335.7,286046997.6,N
1584865355.5,286046997.6,N
1584865375.3,286046992.4,Y
1584865395.2,286046990.5,P
1584865415.0,286046994.9,N
1584865415.9,286046994.9,N
1584865435.8,286046995.7,N
1584865455.6,286046985.9,Y
1584865475.4,286046999.0,P
1584865495.3,286046993.3,P
1584865515.1,286046990.7,P
1584865535.8,286046992.0,N
1584865555.7,286046985.0,Y
1584865575.5,286046994.9,P
1584865595.4,286046998.9,N
1584865615.2,286047000.7,N
1584865635.0,286046998.1,N
1584865635.9,286046998.1,N
1584865655.8,286046997.1,N
1584865675.6,286046996.7,N
1584865695.5,286046998.4,N
1584865715.3,286047001.5,N
1584865735.1,286046997.2,N
1584865755.9,286046994.4,N
1584865775.7,286046991.6,Y
1584865795.5,286046995.7,P
1584865815.4,286046994.9,P
1584865835.2,286046990.7,P
1584865855.1,286046991.4,Y
1584865886.0,286046992.4,E
1584865895.0,286046995.5,N
1584865895.9,286046995.5,P
1584865915.8,286046997.9,P
1584865935.6,286046997.6,N
1584865955.4,286046997.8,N
1584865975.3,286046998.8,N
1584865995.1,286046995.2,Y
1584866015.8,286046998.8,P
1584866035.7,286046997.6,P
1584866055.5,286046996.2,P
1584866075.4,286046992.4,Y
1584866095.2,286046991.3,P
1584866115.0,286046989.3,P
1584866115.9,286046989.3,P
1584866135.8,286046986.9,Y
1584866155.6,286047001.1,P
1584866175.4,286046999.4,N
1584866195.3,286046997.4,N
1584866215.1,286046998.9,N
1584866235.9,286046996.9,N
1584866255.7,286046997.0,N
1584866275.5,286047009.0,Y
1584866295.4,286047005.2,P
1584866315.2,286047001.8,N
1584866335.1,286046999.9,N
1584866336.0,286046999.9,N
1584866355.8,286046999.3,N
1584866375.6,286046995.4,N
1584866395.5,286046990.5,Y
1584866415.3,286046987.2,P
1584866435.1,286046986.2,N
1584866455.9,286046986.6,N
1584866475.7,286046984.4,N
1584866495.6,286046980.2,Y
1584866515.4,286046988.2,P
1584866535.2,286046987.2,P
1584866555.1,286046987.0,P
1584866556.0,286046987.0,Y
1584866575.8,286047001.2,P
1584866595.7,286046998.4,N
1584866615.5,286046995.6,N
1584866635.3,286046997.5,N
1584866655.2,286047002.6,N
1584866675.9,286047000.1,N
1584866695.7,286046997.2,N
1584866715.6,286046996.2,N
1584866735.4,286046992.6,N
1584866755.2,286046991.1,N
1584866775.1,286046990.7,N
1584866776.0,286046990.7,N
1584866795.8,286046988.0,N
1584866815.7,286046985.3,Y
1584866835.5,286046990.3,P
1584866855.3,286046987.9,P
1584866875.2,286046989.5,P
1584866895.0,286046990.8,Y
1584866895.9,286046990.8,P
1584866915.8,286046996.6,P
1584866935.6,286046994.5,N
1584866955.4,286046992.8,N
1584866975.3,286046987.3,Y
1584866995.1,286046995.1,P
1584867015.9,286046994.0,P
1584867035.7,286046991.2,P
1584867055.5,286046994.3,Y
1584867075.4,286046999.8,P
1584867095.2,286047000.9,N
1584867115.0,286046995.1,N
1584867115.9,286046995.1,N
1584867135.8,286046996.1,N
1584867155.6,286046991.3,Y
1584867175.5,286046992.5,P
1584867195.3,286046987.0,P
1584867215.1,286046984.0,P
1584867235.9,286046987.8,N
1584867255.7,286046986.9,N
1584867275.5,286046984.2,Y
1584867295.4,286046995.7,P
1584867315.2,286046994.7,N
1584867335.1,286046996.9,N
1584867336.0,286046996.9,N
1584867355.8,286046993.4,N
1584867375.6,286046991.4,Y
1584867395.5,286046992.2,P
1584867415.3,286046993.0,P
1584867435.2,286046993.1,P
1584867455.9,286046994.5,Y
1584867475.7,286047001.2,P
1584867495.6,286046998.8,N
1584867515.4,286046996.1,N
1584867535.2,286046994.6,N
1584867555.1,286046990.5,Y
1584867556.0,286046990.5,P
1584867575.8,286046992.8,N
1584867595.7,286046990.8,P
